Flag for Netherlands Weather past 2 weeks in Zaandam, Netherlands

Now
68 °F

Passing clouds.


Feels Like: 68 °F
Forecast: 56 / 73 °F
Wind: 5 mph from Southeast

Location: Amsterdam Schiphol Airport

Current Time: Aug 1, 2015 at 12:47:47 PM

Latest Report: Aug 1, 2015 at 11:55 AM


Visibility: N/A

Pressure: 30.01 "Hg

Humidity: 46%

Dew point: 46 °F

Location of ZaandamLocation

Historic Weather in Zaandam — Graph

°F

Zaandam temperature yesterday

Maximum temperature yesterday: 66 °F (at 3:55 PM)
Minimum temperature yesterday: 46 °F (at 3:55 AM)
Average temperature yesterday: 57 °F

Past Weeks' High & Low Weather Summary

 TemperatureHumidityPressure
High77 °F (Jul 17, 2:25 PM)100% (Jul 19, 10:55 AM)30.15 "Hg (Jul 19, 10:55 AM)
Low46 °F (Jul 31, 3:55 AM)40% (Jul 18, 5:25 PM)29.36 "Hg (Jul 25, 9:55 AM)
Average62 °F75%29.85 "Hg
* Reported Jul 17 11:25 AM — Aug 1 11:55 AM, Zaandam, Weather by CustomWeather, © 2015

Note: Actual official high and low records may vary slightly from our data, if they occured in-between our weather recording intervals... More about our weather records

Advertising

Zaandam weather history for previous 24 hours

 ConditionsComfort  
Time TempWeatherWind HumidityBarometerVisibility
11:55 AM
Sat, Aug 1
68 °FPassing clouds.5 mph46%30.01 "HgN/A
11:25 AM66 °FPassing clouds.3 mph43%30.01 "HgN/A
10:55 AM66 °FPassing clouds.2 mph52%30.01 "HgN/A
10:25 AM64 °FPassing clouds.2 mph56%30.01 "HgN/A
9:55 AM63 °FPassing clouds.3 mph59%30.01 "HgN/A
9:25 AM61 °FPassing clouds.3 mph63%30.01 "HgN/A
8:55 AM59 °FPassing clouds.3 mph68%30.01 "HgN/A
8:25 AM57 °FSunny.5 mph72%30.01 "Hg10 mi
7:55 AM55 °FPassing clouds.3 mph77%30.01 "HgN/A
7:25 AM52 °FPassing clouds.3 mph82%30.01 "HgN/A
6:55 AM52 °FClear.3 mph77%30.01 "Hg10 mi
6:25 AM48 °FClear.3 mph87%30.01 "Hg10 mi
5:55 AM48 °FPassing clouds.5 mph87%30.01 "HgN/A
4:55 AM50 °FClear.2 mph82%30.01 "Hg10 mi
4:25 AM48 °FClear.3 mph87%30.01 "Hg10 mi
3:55 AM48 °FClear.5 mph87%30.01 "Hg10 mi
3:25 AM50 °FClear.5 mph82%30.01 "Hg10 mi
2:55 AM50 °FClear.6 mph88%30.04 "Hg10 mi
2:25 AM52 °FClear.7 mph82%30.04 "Hg10 mi
1:55 AM52 °FClear.7 mph77%30.04 "Hg10 mi
1:25 AM52 °FClear.6 mph82%30.04 "Hg10 mi
12:55 AM50 °FClear.6 mph82%30.04 "Hg10 mi
12:25 AM52 °FClear.6 mph77%30.04 "Hg10 mi
11:55 PM
Fri, Jul 31
52 °FClear.6 mph77%30.04 "Hg10 mi
11:25 PM52 °FClear.7 mph77%30.04 "Hg10 mi
10:55 PM55 °FClear.7 mph72%30.04 "Hg10 mi
10:25 PM54 °FSunny.7 mph77%30.04 "Hg10 mi
9:55 PM55 °FSunny.6 mph67%30.04 "Hg10 mi
9:25 PM57 °FSunny.6 mph63%30.04 "Hg10 mi
8:55 PM57 °FSunny.7 mph63%30.04 "Hg10 mi
8:25 PM61 °FSunny.8 mph55%30.07 "Hg10 mi
7:55 PM63 °FPassing clouds.10 mph52%30.07 "HgN/A
7:25 PM63 °FSunny.10 mph52%30.07 "Hg10 mi
6:55 PM63 °FSunny.7 mph56%30.07 "Hg10 mi
6:25 PM66 °FPassing clouds.8 mph49%30.07 "HgN/A
5:55 PM66 °FSunny.3 mph46%30.07 "Hg10 mi
5:25 PM64 °FPassing clouds.3 mph49%30.09 "HgN/A
4:55 PM64 °FPassing clouds.7 mph52%30.09 "HgN/A
4:25 PM66 °FPassing clouds.5 mph49%30.09 "HgN/A
3:55 PM66 °FPassing clouds.6 mph52%30.09 "HgN/A
3:25 PM64 °FPassing clouds.5 mph52%30.09 "HgN/A
2:55 PM63 °FPassing clouds.6 mph52%30.12 "HgN/A
2:25 PM64 °FPassing clouds.3 mph46%30.12 "HgN/A
1:55 PM63 °FPassing clouds.2 mph49%30.12 "HgN/A
1:25 PM64 °FPassing clouds.3 mph52%30.12 "HgN/A
12:55 PM63 °FPassing clouds.3 mph52%30.12 "HgN/A
12:25 PM63 °FPassing clouds.5 mph52%30.12 "HgN/A
Weather by CustomWeather, © 2015

See weather overviewHow to use our weather pages